Location: Port-Aux-Quilles Astronomical Observatory
(47.9769°N, 69.9642°W)
Time: 03:05:44
(UTC-04:00)

OTV 5 (USA 277) - Visible Passes

Search period start: 21 October 2019 00:00
Search period end: 31 October 2019 00:00
Orbit: 310 x 324 km, 54.5° (Epoch: 17 October)

Date Brightness Start Highest point End Pass type
(mag) Time Alt. Az. Time Alt. Az. Time Alt. Az.
28 Oct ? 19:10:26 10° SSW 19:11:24 17° S 19:11:24 17° S visible
29 Oct ? 19:24:27 10° SW 19:25:53 26° SW 19:25:53 26° SW visible
30 Oct ? 18:05:51 10° S 18:07:39 16° SE 18:09:20 11° E visible
30 Oct ? 19:38:58 10° WSW 19:40:14 24° WSW 19:40:14 24° WSW visible
